Theta_e
324 324 323 325 325 326 326 326 326 327 329 326 324 325 325 325 325 323 321 320 320 319 318 319 318 320 322 323 324 323 322 321 320 321 320 320 320 319 318 316 317 318 317 317 317 317 316 316 315 315 315 317
324 324 323 325 326 326 327 327 327 328 328 326 325 325 323 324 323 321 320 319 319 318 317 319 318 319 323 323 323 323 321 320 319 319 319 319 319 318 317 315 315 316 316 316 316 316 316 315 314 314 314 315
322 324 324 325 326 325 327 327 327 326 324 324 323 322 322 321 320 318 318 318 318 317 317 318 318 320 322 322 322 322 321 320 319 318 318 319 318 317 316 313 314 315 316 316 315 315 315 315 314 313 313 314
321 323 324 325 324 324 324 324 323 322 322 321 320 320 320 319 319 318 317 318 318 317 317 317 318 320 321 322 322 321 320 319 318 317 318 318 317 316 315 313 313 314 315 315 314 314 314 315 314 313 313 315
320 321 323 324 323 323 322 321 320 321 321 320 319 319 319 319 319 317 317 320 319 319 319 317 317 319 319 321 320 320 319 318 318 317 317 317 316 316 314 313 313 313 314 314 314 314 314 314 313 313 314 316
319 320 321 322 323 323 322 321 320 320 320 320 319 319 319 318 317 316 318 321 321 321 320 317 317 317 319 319 318 318 318 319 319 318 317 316 316 315 313 312 312 313 314 314 315 315 314 313 313 313 315 317
317 319 319 320 322 322 321 321 320 320 319 318 318 318 319 318 317 318 320 321 321 320 318 317 317 316 316 318 318 317 317 318 318 317 317 316 316 315 313 311 311 312 313 314 314 315 315 314 314 313 314 316
315 317 318 319 320 321 321 321 320 318 317 317 317 318 318 316 318 321 320 321 320 316 314 315 317 315 313 316 317 315 316 317 316 316 316 315 315 314 312 311 311 311 312 313 313 314 315 315 314 314 314 314
312 313 316 318 319 320 320 320 320 319 318 318 317 317 317 316 318 321 320 320 318 313 312 313 316 315 312 314 315 315 317 316 315 316 315 315 314 313 311 309 311 311 311 312 312 313 314 314 314 314 315 314
309 311 313 315 317 319 319 319 320 320 320 318 318 317 317 317 318 319 320 319 316 313 313 314 315 314 313 314 315 316 317 315 315 315 314 314 313 313 310 309 310 310 311 311 311 312 312 312 313 312 313 315
306 308 310 312 314 316 317 318 319 320 319 318 317 317 316 318 317 316 318 318 315 314 314 316 314 314 314 315 315 316 316 315 314 313 313 313 312 312 310 307 309 309 310 310 310 311 311 311 312 310 311 314
302 304 306 309 312 313 314 316 318 318 318 318 316 316 317 317 315 314 316 317 315 315 316 317 314 314 315 315 315 315 315 314 313 312 312 311 311 311 309 305 307 308 308 309 309 310 311 311 311 310 311 312
297 300 302 305 307 308 311 313 316 317 317 317 316 316 317 317 316 315 315 316 317 317 317 317 315 314 315 314 314 314 314 314 313 312 312 311 310 310 308 304 304 307 307 308 308 309 309 310 310 310 310 310
293 296 298 299 301 304 307 310 312 314 315 316 315 316 316 316 317 317 316 316 318 318 317 317 315 314 314 314 314 314 314 313 313 312 311 311 309 309 307 303 302 305 306 307 307 307 308 309 309 309 309 309
291 293 294 295 297 299 302 305 308 309 310 311 312 313 314 314 315 316 316 316 317 317 317 316 315 314 314 314 314 314 314 313 313 311 310 309 307 307 307 303 301 302 304 306 306 307 307 308 308 308 309 309
291 290 292 293 293 295 298 301 303 304 305 306 308 309 310 311 312 313 314 315 316 316 316 315 314 314 313 314 313 313 313 312 312 311 310 308 305 304 305 303 301 301 302 304 305 306 307 307 307 308 308 309
289 289 290 291 291 292 294 297 299 300 300 300 303 305 306 308 309 310 311 311 313 314 315 315 314 314 313 312 312 312 312 311 311 311 310 308 304 302 302 301 300 300 300 301 302 304 305 306 307 307 307 308
287 288 288 289 290 291 292 293 295 296 297 298 299 300 302 304 306 307 308 309 310 312 313 313 313 313 312 311 311 311 311 311 310 310 310 308 305 302 299 298 298 297 298 298 299 300 302 304 306 306 306 307
286 286 286 286 288 290 291 291 292 292 294 296 296 297 298 299 301 303 305 306 307 308 309 310 311 311 311 310 310 309 310 310 309 309 309 308 307 304 297 294 294 294 295 295 295 296 298 300 303 305 305 306
284 285 285 284 285 286 289 290 290 290 291 293 294 296 296 296 297 299 301 303 304 306 307 308 308 309 310 310 309 308 308 308 308 308 308 307 307 305 299 294 293 293 292 292 293 293 294 296 298 301 303 304
283 283 284 283 283 284 285 286 287 288 290 291 292 293 294 295 295 295 297 300 301 303 304 305 306 307 308 309 308 308 307 307 307 307 307 306 304 302 299 296 295 293 291 291 292 292 292 293 294 297 299 301
282 282 283 283 283 283 283 283 283 285 287 288 290 291 292 293 294 294 295 296 298 299 301 302 303 305 306 306 307 307 307 306 306 306 305 304 303 300 298 297 296 293 291 290 290 291 291 291 292 293 295 297
281 281 282 282 282 282 283 282 282 282 283 284 286 288 290 292 292 293 293 294 295 297 298 299 300 302 303 304 305 306 306 306 305 305 305 303 302 300 299 297 295 293 291 290 290 290 290 290 290 291 292 293
280 280 281 281 281 281 282 282 281 281 281 281 282 283 286 288 290 291 292 292 293 294 295 295 297 298 299 301 302 304 304 305 305 305 304 304 303 302 300 298 295 292 290 290 289 289 289 289 289 289 290 291
279 279 280 280 280 280 280 280 280 280 280 280 280 280 282 284 286 289 290 291 291 292 293 293 294 296 296 297 298 300 302 302 303 303 302 303 303 302 300 298 296 292 290 289 288 288 288 288 288 288 289 289
279 279 279 279 279 279 279 279 279 279 279 279 279 279 280 281 282 284 287 288 289 290 291 291 291 292 294 294 295 297 298 299 300 300 300 299 299 299 299 299 298 295 292 289 287 288 288 288 288 288 288 288
279 279 278 278 278 278 278 278 278 278 278 279 279 278 279 279 280 281 282 284 286 287 289 289 290 290 291 292 293 294 295 296 297 298 298 298 298 296 295 295 296 296 296 292 289 288 289 289 288 289 288 287
279 279 278 278 278 278 278 278 278 277 278 278 278 278 278 278 278 279 279 280 282 284 285 287 288 288 289 290 291 291 292 293 294 295 296 296 296 296 294 292 291 293 295 295 293 291 290 288 287 291 289 286
279 279 279 278 278 278 278 278 277 277 277 277 277 277 277 277 277 277 278 278 279 280 282 283 285 286 287 288 289 289 289 290 291 292 293 293 293 293 293 292 291 290 290 293 296 295 292 290 291 292 289 286
279 279 279 278 278 277 277 277 277 277 276 276 277 277 277 277 276 276 276 277 277 278 279 280 282 283 285 286 287 288 288 288 288 289 291 292 292 292 292 292 291 289 289 290 293 295 295 295 295 292 288 289
279 279 278 278 278 278 277 277 277 277 276 276 276 276 276 276 276 276 276 276 276 277 277 278 279 281 282 283 284 285 286 286 286 287 288 290 290 291 291 292 291 290 289 288 290 292 293 294 293 291 289 289
Wind_Speed
25 28 32 32 32 31 28 25 25 24 26 32 31 29 26 23 22 22 22 20 21 20 19 18 16 17 18 20 22 22 22 19 17 15 14 13 12 9 9 9 11 16 21 22 22 22 19 16 13 12 11 12
24 28 32 28 25 25 22 18 19 17 27 31 30 30 26 23 21 20 20 18 21 22 19 18 19 20 19 20 21 23 25 23 19 17 16 16 13 10 10 13 15 18 20 21 21 20 17 14 11 11 10 12
24 27 28 19 15 17 13 2 7 16 25 24 24 26 25 22 21 20 17 17 21 22 19 19 22 23 20 19 19 19 21 21 21 19 18 16 13 11 13 16 17 18 20 20 19 18 16 13 11 11 10 13
25 26 24 12 7 10 9 11 17 20 21 20 21 22 22 22 21 18 15 19 22 20 20 21 23 24 21 19 19 19 18 18 19 20 18 16 14 12 16 18 18 18 19 19 18 17 15 14 14 13 13 16
25 24 24 13 4 10 8 11 18 20 22 22 21 20 22 22 20 18 17 21 22 19 22 24 23 24 23 19 18 18 16 16 17 19 19 19 18 15 18 20 20 20 20 20 18 18 16 16 16 16 17 18
24 23 23 21 10 6 11 13 17 19 21 22 22 22 24 23 20 19 21 24 24 22 23 25 24 23 22 19 17 16 16 16 16 17 19 20 20 18 19 21 22 22 22 21 20 19 18 17 18 18 19 19
24 23 22 22 20 9 6 12 17 20 20 19 19 21 24 22 20 22 25 26 26 24 23 24 24 22 20 18 15 14 16 17 15 16 17 16 18 18 19 21 21 22 22 22 21 20 19 19 19 19 19 19
24 24 23 21 22 20 11 11 15 17 18 17 18 21 23 22 22 25 27 27 26 24 23 24 25 21 20 20 15 14 16 16 15 15 16 16 16 16 19 21 20 20 21 22 22 21 20 20 20 19 18 18
27 25 24 23 21 22 17 10 11 16 20 18 17 20 23 23 25 27 27 28 27 24 24 25 26 22 20 21 18 17 17 17 17 18 19 19 16 16 19 22 21 19 20 21 22 22 21 20 19 18 18 18
30 26 25 25 23 21 20 17 15 16 20 19 19 21 23 27 29 28 28 28 27 26 26 26 26 23 21 22 21 21 20 19 20 20 21 20 17 16 19 22 22 20 20 20 20 20 20 20 19 18 18 18
32 29 27 26 23 21 20 20 22 20 16 17 21 24 27 31 32 31 30 28 27 28 28 27 27 26 25 25 24 25 24 23 21 20 20 20 18 17 19 22 23 22 21 20 19 19 20 20 19 19 19 20
34 33 31 28 24 23 20 17 19 22 21 19 19 25 30 32 33 33 32 30 30 30 29 29 29 28 28 28 26 26 27 26 24 22 20 19 19 19 20 21 21 21 21 20 20 20 20 20 19 19 20 20
36 36 34 32 29 26 22 18 17 20 23 23 18 23 28 29 32 33 32 32 32 31 31 30 30 29 29 30 29 27 27 28 28 26 23 21 19 19 21 20 19 19 20 20 20 20 20 20 20 20 20 21
36 38 37 35 34 31 25 21 17 17 20 21 17 20 24 26 30 31 32 33 32 31 31 31 31 31 29 30 31 29 29 29 28 27 25 23 21 20 22 21 18 18 18 19 19 19 19 20 20 20 20 21
36 37 38 36 36 35 31 26 20 17 17 17 12 12 16 20 24 27 29 31 32 32 32 32 31 31 29 29 30 30 31 29 28 26 24 22 20 20 24 22 18 17 17 17 18 18 19 20 21 21 21 21
38 37 37 37 37 37 35 31 27 24 21 20 16 10 7 9 13 17 22 26 29 31 31 31 30 30 29 29 28 29 30 29 28 26 23 20 17 19 24 23 20 18 16 16 17 17 18 20 21 21 21 21
38 38 39 40 38 38 37 35 33 31 29 26 22 18 14 9 7 8 12 17 23 28 30 30 30 30 29 28 28 29 29 29 28 26 23 20 16 19 22 23 22 20 18 18 17 17 18 19 20 21 21 21
38 38 40 41 40 39 39 38 37 36 34 32 28 25 21 16 11 8 7 9 14 21 26 29 31 30 27 26 26 28 29 29 28 27 25 22 18 18 21 22 22 21 20 20 19 19 18 18 19 19 20 20
38 36 37 39 40 39 39 39 39 38 37 35 33 31 28 25 20 14 9 8 9 12 17 21 26 29 27 25 24 25 27 27 28 27 26 24 21 20 20 21 21 20 20 20 20 19 19 19 19 19 19 19
38 36 34 35 39 39 38 38 38 38 38 37 36 34 33 31 28 23 16 11 9 9 11 14 18 22 25 26 24 24 25 25 26 26 26 25 23 21 20 20 19 19 19 19 19 19 19 19 19 20 20 20
38 37 35 34 36 38 38 38 38 37 37 37 37 37 35 34 33 30 25 18 13 10 9 11 13 16 20 23 24 23 23 24 24 25 25 24 23 22 20 19 18 18 18 18 18 18 19 19 20 20 20 20
38 37 37 35 36 38 39 38 38 37 37 37 36 36 35 34 34 34 31 26 20 16 12 8 9 13 16 19 21 22 23 23 24 25 24 24 23 22 20 18 17 18 18 17 17 17 18 19 20 20 21 21
39 38 37 36 37 38 39 39 38 38 37 37 36 35 33 32 32 33 33 31 27 23 20 15 10 8 12 16 19 21 22 24 25 26 25 25 24 22 21 19 18 17 17 16 15 16 17 18 19 20 21 21
41 40 38 37 38 38 38 38 38 37 36 36 36 35 34 32 30 31 31 32 30 27 26 23 18 12 8 10 15 20 22 25 27 28 29 28 26 25 22 20 19 17 16 15 14 15 16 17 18 20 21 21
38 38 36 34 34 32 33 35 36 37 35 33 34 35 34 34 32 30 29 30 30 28 27 27 24 19 15 11 8 14 19 23 26 28 28 28 27 27 26 23 20 18 15 12 10 11 13 16 18 19 21 22
33 32 30 28 28 26 26 29 31 34 35 33 32 34 34 34 33 31 30 29 29 28 27 28 28 25 21 18 14 9 12 16 20 24 26 25 25 26 26 25 23 22 17 10 6 4 5 10 14 18 21 23
31 30 28 25 25 25 24 25 27 28 31 32 31 33 34 33 33 32 31 30 29 28 27 27 27 27 25 22 19 16 11 10 13 18 23 25 25 24 23 22 23 26 23 16 9 3 1 3 5 8 14 20
30 29 29 27 25 25 24 25 27 27 29 32 32 32 33 32 32 31 30 30 29 28 27 26 26 26 26 24 22 20 18 14 10 12 17 21 23 23 22 20 21 24 27 26 17 5 2 1 1 3 5 9
30 30 31 30 28 28 27 28 30 30 31 32 32 32 32 31 31 31 30 30 29 28 27 26 26 25 25 25 24 23 22 19 14 8 10 14 19 22 20 18 19 21 24 28 27 17 7 2 1 3 2 2
29 29 30 31 30 28 27 27 28 29 28 29 30 30 30 30 30 31 31 30 30 28 27 27 26 25 25 25 24 23 23 22 20 15 10 8 13 18 18 14 14 19 21 23 27 27 20 11 6 4 3 1
28 28 27 27 26 25 24 23 23 23 24 25 26 26 28 29 30 30 30 31 31 30 29 27 26 26 25 24 24 23 22 23 23 21 16 10 7 12 17 17 14 14 18 19 22 26 25 19 13 8 6 4
Wind_Direction
336 332 331 329 324 316 303 281 267 263 228 195 173 165 164 160 160 162 166 169 171 176 180 181 187 196 197 188 182 177 169 166 164 161 164 170 168 156 152 153 156 170 174 171 170 170 168 165 164 167 165 160
339 341 338 332 330 333 323 287 264 233 191 172 158 155 155 154 158 164 168 177 184 188 191 192 196 197 196 188 179 175 175 172 164 162 171 175 167 159 165 166 165 170 173 175 173 173 172 165 166 174 174 172
340 345 341 336 347 3 9 347 171 150 147 147 145 146 151 159 170 175 181 195 197 201 204 198 195 193 190 186 178 171 171 167 159 160 169 175 170 167 173 168 167 170 171 175 176 176 176 177 181 181 180 178
342 345 344 348 46 59 73 114 132 132 134 146 154 154 162 172 185 194 203 207 205 204 200 197 196 193 189 186 181 176 174 169 166 169 173 185 189 180 178 171 165 167 171 176 177 176 177 182 183 178 176 173
343 343 344 345 77 117 127 137 140 143 151 164 171 176 182 184 197 206 200 199 199 195 193 197 200 197 194 191 189 186 184 184 183 182 185 194 200 192 184 177 168 167 171 175 177 177 176 178 176 172 172 169
346 341 340 338 337 145 156 159 159 164 165 174 181 186 192 194 200 195 184 188 192 190 194 199 200 198 194 194 195 191 186 186 185 184 186 192 199 199 188 178 171 170 171 173 174 173 174 175 173 169 168 167
350 344 337 336 335 323 207 182 177 180 177 181 189 192 198 198 194 188 184 189 191 190 197 201 201 199 197 197 193 194 192 187 190 191 190 188 195 203 193 181 173 171 172 172 172 171 172 173 172 170 168 169
353 350 341 333 333 330 298 223 189 186 193 196 194 196 202 196 189 191 190 191 193 196 204 206 204 204 208 207 199 208 203 191 198 196 193 193 195 202 194 184 177 174 175 174 174 172 172 173 173 173 172 173
359 355 348 337 332 331 320 271 225 214 214 210 203 203 202 194 191 195 195 195 199 203 208 207 206 207 210 208 207 215 202 190 198 192 195 203 200 200 193 183 179 180 181 180 179 178 178 177 176 176 176 178
4 1 356 349 339 329 327 320 301 259 227 217 217 213 204 197 195 198 198 200 204 206 206 204 204 202 199 202 207 209 197 189 197 194 198 206 204 203 196 184 181 184 186 186 186 185 185 185 184 184 184 183
9 8 4 357 349 338 332 326 319 304 270 243 228 217 210 203 201 202 201 203 206 207 205 201 198 193 192 199 203 204 199 194 199 201 202 207 209 209 201 188 184 185 188 190 191 189 189 189 191 191 191 190
13 12 10 5 358 350 343 329 318 319 316 294 256 224 213 207 206 207 204 205 206 205 205 201 194 192 193 199 203 203 203 203 203 207 210 211 213 213 206 195 187 188 189 191 193 193 193 193 194 194 194 196
17 15 15 13 10 3 353 343 324 318 323 313 276 231 216 209 211 210 205 207 208 203 202 201 199 198 198 200 204 204 205 208 208 210 214 215 215 215 209 201 193 191 190 190 191 193 196 196 197 197 198 199
20 19 18 16 16 14 8 2 349 333 329 318 282 235 217 208 212 214 209 209 210 207 204 203 203 204 203 201 204 208 209 211 212 214 218 219 221 219 211 207 200 196 194 193 193 194 196 198 199 201 202 202
25 22 20 17 19 21 20 16 11 8 1 346 315 253 229 216 216 216 214 213 212 211 208 206 206 206 208 207 206 209 211 212 214 217 220 223 227 221 212 210 207 203 200 198 197 196 196 198 200 201 202 204
30 25 21 21 21 23 26 25 23 21 22 20 13 353 311 265 242 226 220 218 217 215 211 209 209 209 211 212 211 210 211 212 214 217 220 223 224 216 210 210 212 211 209 207 205 202 200 199 199 200 201 203
32 29 27 27 24 25 28 30 30 27 25 24 26 25 14 350 314 271 240 228 220 217 215 212 211 212 214 215 213 211 212 212 211 214 217 219 217 211 209 211 214 215 215 215 214 212 208 204 202 202 201 202
34 32 31 30 28 27 30 32 33 32 29 25 26 29 28 24 12 343 303 272 239 223 218 214 212 214 216 216 215 212 212 212 212 212 215 217 216 214 214 216 218 219 220 220 221 220 217 214 211 210 207 206
34 33 32 31 30 29 29 32 33 32 32 30 28 27 29 30 26 17 356 330 297 257 236 224 217 216 218 219 218 216 215 213 212 212 213 216 218 219 218 218 221 223 223 224 225 225 224 222 221 220 218 216
34 34 33 31 31 31 29 30 31 31 32 32 32 30 28 28 27 25 19 9 346 311 277 255 237 224 221 223 223 220 218 215 213 212 212 215 218 221 221 221 224 227 228 228 228 229 229 228 227 225 225 224
33 34 34 32 31 33 33 32 30 30 30 31 32 31 30 27 26 25 24 22 15 359 328 291 269 248 232 228 227 226 224 220 217 216 214 214 215 220 223 225 229 232 233 232 232 233 233 233 233 231 230 228
30 32 33 32 31 32 33 33 31 30 31 29 29 30 29 27 26 25 25 25 22 17 9 344 303 277 257 244 236 232 230 227 223 220 219 217 215 217 221 226 232 235 235 235 236 236 236 236 235 235 234 231
23 26 29 29 29 30 31 31 30 29 30 29 28 28 27 26 25 25 25 25 25 23 20 15 2 321 284 265 250 239 234 230 227 224 220 218 216 217 221 226 230 232 235 236 237 239 238 238 238 237 236 234
20 21 23 25 25 27 27 27 27 27 27 28 28 28 27 26 24 23 23 24 25 25 24 21 19 14 347 290 261 248 240 234 231 227 222 220 218 219 219 222 226 228 231 235 240 244 244 244 243 241 239 237
21 21 20 21 23 24 24 26 26 24 24 25 25 27 28 27 26 24 21 21 23 25 26 24 21 20 19 2 303 260 246 240 234 229 225 221 219 218 216 216 221 222 221 226 238 251 257 256 253 249 246 242
22 23 23 22 22 22 23 24 25 24 23 22 23 26 28 28 28 26 24 21 20 23 25 25 23 22 21 18 5 320 269 253 243 235 228 222 216 215 215 217 220 219 216 206 205 240 285 280 271 262 256 251
20 21 23 24 23 23 23 22 23 24 24 24 23 24 27 28 28 28 27 24 21 21 23 24 23 23 24 23 20 7 340 302 273 251 237 228 221 215 213 216 216 217 217 201 173 141 322 293 302 280 262 254
17 17 19 22 23 23 23 22 22 22 22 24 24 23 24 24 26 28 28 27 25 23 24 24 22 23 24 26 27 23 13 356 327 282 253 236 227 220 214 213 211 212 215 209 195 166 102 78 15 275 261 258
13 13 15 17 18 19 20 19 19 19 17 18 20 21 21 21 22 25 26 27 27 26 26 26 23 22 22 24 27 28 23 15 7 338 284 252 237 228 220 216 213 208 209 213 212 201 179 128 170 237 247 306
9 11 13 15 17 17 17 17 17 17 15 15 17 17 18 20 22 23 24 26 27 26 26 26 25 24 22 23 24 26 25 20 17 13 352 297 258 244 237 232 222 212 208 212 214 210 210 217 208 179 144 165
5 8 12 14 17 17 16 16 15 15 15 15 16 16 16 17 20 22 23 23 24 25 26 25 25 25 24 23 22 22 23 21 16 14 14 2 311 271 254 246 238 225 213 211 215 213 215 222 219 197 165 163